Regional Weather Roundup
Issued by NWS

Home | Current Version | Previous Version | Text Only | Print | Product List | Glossary On
Versions: 1 2 3 4 5 6 7 8 9 10 11 12 13 14 15 16 17 18 19 20 21 22 23 24 25 26 27 28 29 30 31 32 33 34 35 36 37 38 39 40 41 42 43 44 45 46 47 48 49 50
000
ASUS43 KLSX 240610
RWRMO

WEATHER SUMMARY FOR MISSOURI
NATIONAL WEATHER SERVICE SPRINGFIELD MO
100 AM CDT THU MAY 24 2018

NOTE: "FAIR" INDICATES FEW OR NO CLOUDS BELOW 12,000 FEET WITH NO
       SIGNIFICANT WEATHER AND/OR OBSTRUCTIONS TO VISIBILITY.
       CURRENT SKY AND/OR WEATHER CONDITIONS ARE NOT AVAILABLE FOR
       CHILLICOTHE AND FARMINGTON.

MOZ001>031-035>038-043-044-053-054-240700-
...NORTHERN AND WESTERN MISSOURI...

CITY           SKY/WX    TMP DP  RH WIND       PRES   REMARKS
KANSAS CTY INT MOCLDY    71  64  78 S10       30.07S
6HR MIN TEMP:  71; 6HR MAX TEMP:  84;

KANSAS C DTWN  MOCLDY    74  63  68 S7        30.06F
6HR MIN TEMP:  74; 6HR MAX TEMP:  87;

LEE`S SUMMIT   PTCLDY    69  64  84 S8        30.09S
6HR MIN TEMP:  69; 6HR MAX TEMP:  84;

ST JOSEPH      MOCLDY    73  65  75 S8        30.05S
6HR MIN TEMP:  72; 6HR MAX TEMP:  89;

CHILLICOTHE      N/A     73  66  78 S3        30.10S
6HR MIN TEMP:  73; 6HR MAX TEMP:  86;

KIRKSVILLE     CLEAR    N/A N/A N/A SE6       30.13R

$$
MOZ066>068-077>081-088>096-101>105-240700-
...SOUTHWEST MISSOURI...

CITY           SKY/WX    TMP DP  RH WIND       PRES   REMARKS
SPRINGFIELD    CLOUDY    68  64  87 S6        30.12F
6HR MIN TEMP:  65; 6HR MAX TEMP:  70; 6HR PCP: TRACE;

JOPLIN         MOCLDY    67  65  93 SE5       30.10F
6HR MIN TEMP:  66; 6HR MAX TEMP:  73;

BRANSON        MOCLDY    64  64 100 CALM      30.16R

$$
MOZ032>034-039>042-045>050-055>058-069>072-240700-
...CENTRAL MISSOURI...

CITY           SKY/WX    TMP DP  RH WIND       PRES   REMARKS
COLUMBIA       CLOUDY    72  65  78 CALM      30.13R
6HR MIN TEMP:  70; 6HR MAX TEMP:  83;

JEFFERSON CITY CLOUDY    70  67  90 CALM      30.12R
6HR MIN TEMP:  70; 6HR MAX TEMP:  86;

ROLLA          CLEAR     67  64  90 CALM      30.15R
6HR MIN TEMP:  65; 6HR MAX TEMP:  81;

SEDALIA        MOCLDY    69  67  93 SE5       30.13R
6HR MIN TEMP:  69; 6HR MAX TEMP:  84;

WHITEMAN AFB   PTCLDY    67  65  91 SE6       30.07S
WARRENSBURG    MOCLDY    66  63  88 SE3       30.10S
OSAGE BEACH    PTCLDY    65  64  97 CALM      30.14R

$$
MOZ051-052-059>065-240700-
...EAST CENTRAL MISSOURI...

CITY           SKY/WX    TMP DP  RH WIND       PRES   REMARKS
ST LOUIS INTL  CLOUDY    74  64  71 SE3       30.11S
6HR MIN TEMP:  74; 6HR MAX TEMP:  83;

SPIRIT OF STL  PTCLDY    68  67  96 W3        30.10S
6HR MIN TEMP:  68; 6HR MAX TEMP:  84;

ST CHARLES     PTCLDY    69  67  93 CALM      30.10R
6HR MIN TEMP:  69; 6HR MAX TEMP:  84;


$$
MOZ072>076-082>087-097>100-106>115-240700-
...SOUTH CENTRAL AND SOUTHEAST MISSOURI...

CITY           SKY/WX    TMP DP  RH WIND       PRES   REMARKS
CAPE GIRARDEAU FAIR      70  66  87 CALM      30.09S
6HR MIN TEMP:  70; 6HR MAX TEMP:  83;

FARMINGTON     MOCLDY    66  65  96 CALM      30.13S
6HR MIN TEMP:  66; 6HR MAX TEMP:  80;

POPLAR BLUFF   FAIR      72  70  93 CALM      30.08F
6HR MIN TEMP:  72; 6HR MAX TEMP:  82;

WEST PLAINS    CLOUDY    67  65  93 N3        30.15R
6HR MIN TEMP:  66; 6HR MAX TEMP:  68; 6HR PCP:  0.02;


$$




USA.gov is the U.S. government's official web portal to all federal, state and local government web resources and services.